Lid_Strength_Index
7 7 7 7 6 6 6 6 7 6 6 6 5 6 7 8 8 7 6 5 6 5 5 5 4 5 4 4 3 3 4 3 4 4 4 3 4 4 5 4 4 4 3
6 7 6 6 6 6 7 6 6 6 6 5 5 5 6 8 8 8 5 5 6 6 5 5 5 4 4 4 4 4 4 4 4 4 4 4 4 4 5 5 5 5 4
6 6 7 7 7 7 7 7 6 6 6 6 6 6 6 8 8 8 5 5 6 5 5 6 4 4 5 5 4 4 4 3 3 4 5 4 4 4 5 5 5 5 4
6 6 7 7 7 7 7 7 6 6 6 6 6 6 6 8 9 8 6 5 4 5 5 5 5 5 5 4 4 4 4 3 4 5 5 5 5 5 5 6 6 5 6
6 7 7 6 6 6 6 6 6 5 6 6 6 7 7 8 8 8 7 5 5 6 6 6 5 4 2 3 4 4 4 4 4 5 6 6 6 6 7 6 6 5 5
6 6 6 6 6 6 7 6 6 6 6 6 6 7 7 7 7 6 6 5 5 5 8 7 6 5 5 3 2 3 3 4 5 5 5 6 6 6 6 6 6 7 7
6 6 6 6 6 6 6 6 6 7 7 7 7 7 6 8 7 7 5 6 7 5 7 8 7 6 5 5 3 3 5 4 3 4 5 6 6 6 5 6 6 7 6
6 6 5 5 6 6 6 6 6 7 7 7 7 7 6 7 6 7 6 7 7 5 5 7 9 9 6 6 4 5 5 5 6 4 4 4 4 5 5 4 4 4 5
6 6 5 4 5 6 6 5 6 7 8 8 7 6 7 7 7 7 8 8 7 6 5 5 6 8 6 6 6 6 6 6 4 4 4 4 4 4 4 4 5 7 6
4 4 5 5 5 7 5 6 5 7 7 7 7 7 7 6 7 7 8 9 9 6 6 6 5 5 6 6 9 7 7 6 6 4 5 4 5 4 3 3 5 5 6
4 4 5 6 6 7 5 5 6 7 6 7 7 7 6 7 7 7 7 9 9 8 6 6 6 6 6 6 6 9 8 7 6 4 4 4 4 4 3 3 3 4 5
4 5 6 5 5 6 7 7 6 6 6 9 9 8 7 8 7 8 8 7 7 9 8 7 6 7 7 6 6 7 6 6 6 6 6 7 7 7 5 5 4 4 4
6 6 7 7 7 6 7 7 8 8 9 10 9 10 9 9 9 8 8 8 8 9 7 7 6 7 6 6 6 6 6 5 6 6 6 6 5 5 4 5 6 7 7
8 7 8 8 8 7 7 6 7 7 8 9 9 10 10 10 10 10 9 10 8 9 7 7 5 6 6 5 6 6 5 6 6 6 7 6 5 5 5 6 6 5 6
7 7 8 8 8 8 7 6 6 6 7 9 9 9 10 10 9 9 9 9 9 8 8 7 6 7 7 6 7 7 6 5 6 6 6 6 6 6 5 5 5 6 6
9 8 8 8 9 6 7 6 7 7 8 9 9 8 9 9 9 9 9 9 9 9 7 8 8 8 8 8 7 7 6 5 6 6 6 6 6 7 7 6 6 6 6
8 8 8 8 8 7 7 7 8 8 8 8 9 9 9 8 9 9 9 9 9 8 8 8 7 7 7 7 6 6 6 6 5 5 5 6 6 6 7 6 7 6 6
7 8 9 8 7 7 7 7 7 7 7 7 8 8 9 9 9 9 9 8 7 7 8 8 7 7 7 6 7 6 6 6 6 5 5 5 6 6 6 6 6 7 6
6 7 8 8 7 7 7 7 7 6 6 6 7 8 9 9 9 9 9 9 8 9 8 7 7 7 7 6 7 7 8 7 7 6 5 5 5 5 6 7 6 9 9
5 8 10 9 7 7 6 6 6 6 6 6 7 7 8 9 9 9 9 9 9 7 7 8 7 7 7 7 7 8 9 8 8 7 6 6 5 5 6 6 7 7 6
5 8 11 8 7 6 6 6 6 7 7 8 8 9 12 9 9 8 9 9 9 7 7 7 8 7 7 7 7 7 8 9 10 8 7 7 7 7 6 7 7 7 6
8 8 7 7 6 6 6 6 6 6 7 9 10 10 12 8 8 9 9 9 7 7 7 6 8 8 7 7 7 7 9 10 10 10 9 8 7 8 7 8 8 8 6
7 7 6 6 5 8 6 5 6 6 8 7 9 8 9 9 9 9 8 8 8 6 5 5 5 6 5 6 7 7 9 11 12 12 12 10 9 9 9 8 7 8 8
7 6 6 5 6 6 5 6 8 9 8 9 9 9 9 9 8 7 6 6 5 5 5 5 6 7 8 9 9 10 11 12 13 13 13 13 11 10 10 8 7 7 7
7 7 8 6 5 5 6 7 7 8 9 9 9 9 8 8 7 6 5 5 5 5 4 5 7 8 8 9 9 10 11 11 12 13 13 13 12 10 10 9 7 5 6
6 5 7 5 6 6 7 8 9 9 9 8 8 8 7 7 7 6 5 5 5 4 5 5 7 8 8 9 10 11 11 12 12 12 12 12 13 11 9 8 7 5 5